Date String (YYYY-MM-DD hh:mm:ss) UTC,Instrument flags,Ambient pressure (hPa),Sample flow (lpm),Bypass flow (lpm),Sample temperature (°C),Ambient temperature (°C),ASC tube jacket temperature (°C),LED temperature (°C),Box temperature (°C),Sample RH (%),Span deviation,Mass concentration (μg/m³),Mass concentration (μg/m³),Mass concentration (μg/m³)
DateTimeUTC,F1_M11,P_M11,Q1_M11,Q2_M11,T1_M11,T2_M11,T3_M11,T4_M11,T5_M11,U1_M11,ZSPAN_M11,X0_M11,X2_M11,X1_M11
2021-09-22 18:00:00,,0834.3,5.01,0.00,29.9,28.6,00.0,39.0,31.7,10.5,0000.0,0009.69,0002.34,0001.69
2021-09-22 18:01:00,,0834.3,5.00,0.00,29.9,28.8,00.0,39.0,31.7,10.8,0000.0,0009.16,0002.37,0001.69
2021-09-22 18:02:00,,0834.3,4.99,0.00,30.0,28.9,00.0,39.0,31.8,10.6,0000.0,0009.08,0002.35,0001.71
2021-09-22 18:03:00,,0834.3,4.99,0.00,30.0,29.0,00.0,39.0,31.8,10.4,0000.0,0009.89,0002.36,0001.71
2021-09-22 18:04:00,,0834.3,4.98,0.00,30.0,29.1,00.0,39.1,31.8,10.4,0000.0,0009.47,0002.36,0001.72
2021-09-22 18:05:00,,0834.3,5.00,0.00,30.0,29.1,00.0,39.1,31.8,10.0,0000.0,0008.56,0002.38,0001.71
2021-09-22 18:06:00,,0834.3,5.01,0.00,30.1,29.2,00.0,39.1,31.9,10.0,0000.0,0007.55,0002.32,0001.69
2021-09-22 18:07:00,,0834.3,5.01,0.00,30.1,29.2,00.0,39.1,31.9,10.0,0000.0,0007.36,0002.30,0001.67
2021-09-22 18:08:00,,0834.3,5.00,0.00,30.1,29.2,00.0,39.1,31.9,09.7,0000.0,0007.35,0002.29,0001.65
2021-09-22 18:09:00,,0834.2,5.00,0.00,30.1,27.8,00.0,39.1,31.6,10.4,0000.0,0007.51,0002.28,0001.65
2021-09-22 18:10:00,,0834.2,5.01,0.00,29.9,26.3,00.0,39.1,31.1,10.4,0000.0,0007.50,0002.23,0001.65
2021-09-22 18:11:00,,0834.2,5.01,0.00,29.8,26.3,00.0,39.0,31.1,10.4,0000.0,0007.47,0002.22,0001.65
2021-09-22 18:12:00,,0834.1,5.00,0.00,29.7,26.8,00.0,39.0,31.2,10.6,0000.0,0007.44,0002.24,0001.67
2021-09-22 18:13:00,,0834.1,4.98,0.00,29.7,27.2,00.0,38.9,31.2,10.9,0000.0,0007.28,0002.22,0001.66
2021-09-22 18:14:00,,0834.1,5.01,0.00,29.7,27.6,00.0,38.9,31.3,10.6,0000.0,0006.72,0002.24,0001.66
2021-09-22 18:15:00,,0834.1,4.99,0.00,29.7,27.9,00.0,38.9,31.4,10.4,0000.0,0006.89,0002.24,0001.66
2021-09-22 18:16:00,,0834.1,5.01,0.00,29.7,28.2,00.0,38.9,31.4,10.7,0000.0,0006.82,0002.21,0001.66
2021-09-22 18:17:00,,0834.0,4.98,0.00,29.8,28.4,00.0,38.9,31.5,10.8,0000.0,0007.32,0002.23,0001.67
2021-09-22 18:18:00,,0834.0,5.00,0.00,29.8,28.5,00.0,38.9,31.5,10.5,0000.0,0006.84,0002.24,0001.68
2021-09-22 18:19:00,,0834.0,5.00,0.00,29.8,28.7,00.0,38.9,31.6,10.6,0000.0,0006.87,0002.25,0001.71
2021-09-22 18:20:00,,0834.0,5.00,0.00,29.8,28.8,00.0,38.9,31.7,10.7,0000.0,0006.63,0002.28,0001.73
2021-09-22 18:21:00,,0834.0,5.00,0.00,29.9,28.9,00.0,38.9,31.7,10.9,0000.0,0006.65,0002.31,0001.72
2021-09-22 18:22:00,,0834.0,4.99,0.00,29.9,29.0,00.0,38.9,31.8,11.4,0000.0,0007.82,0002.38,0001.74
2021-09-22 18:23:00,,0834.0,5.01,0.00,29.9,29.1,00.0,38.9,31.8,11.2,0000.0,0008.78,0002.39,0001.74
2021-09-22 18:24:00,,0834.0,4.99,0.00,30.0,29.1,00.0,39.0,31.8,11.1,0000.0,0009.56,0002.41,0001.73
2021-09-22 18:25:00,,0834.0,5.01,0.00,30.0,29.2,00.0,39.0,31.9,11.3,0000.0,0010.12,0002.40,0001.73
2021-09-22 18:26:00,,0834.0,5.00,0.00,30.0,29.2,00.0,39.0,31.9,11.1,0000.0,0010.09,0002.40,0001.74
2021-09-22 18:27:00,,0834.0,5.01,0.00,30.1,29.0,00.0,39.0,31.8,11.0,0000.0,0010.20,0002.44,0001.75
2021-09-22 18:28:00,,0834.0,5.00,0.00,30.0,27.1,00.0,39.0,31.4,10.9,0000.0,0010.10,0002.48,0001.77
2021-09-22 18:29:00,,0833.9,5.00,0.00,29.8,26.1,00.0,39.0,31.1,11.1,0000.0,0010.16,0002.51,0001.78
2021-09-22 18:30:00,,0833.9,4.99,0.00,29.7,26.4,00.0,38.9,31.1,10.9,0000.0,0010.09,0002.55,0001.78
2021-09-22 18:31:00,,0833.9,5.00,0.00,29.7,26.8,00.0,38.9,31.2,10.9,0000.0,0010.55,0002.56,0001.79
2021-09-22 18:32:00,,0833.8,5.01,0.00,29.7,27.3,00.0,38.9,31.2,10.7,0000.0,0011.26,0002.55,0001.80
2021-09-22 18:33:00,,0833.9,5.01,0.00,29.7,27.6,00.0,38.8,31.3,10.9,0000.0,0010.75,0002.54,0001.79
2021-09-22 18:34:00,,0833.8,5.00,0.00,29.7,27.9,00.0,38.8,31.3,10.9,0000.0,0010.28,0002.56,0001.79
2021-09-22 18:35:00,,0833.8,4.99,0.00,29.7,28.2,00.0,38.8,31.4,10.4,0000.0,0010.34,0002.58,0001.79
2021-09-22 18:36:00,,0833.9,5.01,0.00,29.7,28.4,00.0,38.8,31.5,10.7,0000.0,0009.59,0002.58,0001.79
2021-09-22 18:37:00,,0833.8,4.99,0.00,29.7,28.5,00.0,38.8,31.5,10.4,0000.0,0009.41,0002.57,0001.79
2021-09-22 18:38:00,,0833.8,5.01,0.00,29.8,28.7,00.0,38.8,31.5,10.7,0000.0,0009.49,0002.59,0001.79
2021-09-22 18:39:00,,0833.8,4.99,0.00,29.8,28.8,00.0,38.8,31.6,10.6,0000.0,0009.49,0002.59,0001.78
2021-09-22 18:40:00,,0833.7,5.00,0.00,29.8,28.9,00.0,38.8,31.6,10.7,0000.0,0009.35,0002.56,0001.77
2021-09-22 18:41:00,,0833.7,5.01,0.00,29.9,29.0,00.0,38.9,31.7,10.8,0000.0,0009.75,0002.55,0001.76
2021-09-22 18:42:00,,0833.7,5.00,0.00,29.9,29.0,00.0,38.9,31.7,10.8,0000.0,0010.08,0002.56,0001.76
2021-09-22 18:43:00,,0833.7,4.99,0.00,29.9,29.1,00.0,38.9,31.8,10.7,0000.0,0009.49,0002.57,0001.76
2021-09-22 18:44:00,,0833.7,4.99,0.00,30.0,29.2,00.0,38.9,31.9,10.8,0000.0,0009.07,0002.48,0001.76
2021-09-22 18:45:00,,0833.7,5.01,0.00,30.0,29.2,00.0,39.0,31.9,10.6,0000.0,0009.30,0002.45,0001.76
2021-09-22 18:46:00,,0833.7,4.99,0.00,30.0,28.4,00.0,39.0,31.7,10.4,0000.0,0009.02,0002.41,0001.76
2021-09-22 18:47:00,,0833.7,5.01,0.00,29.9,26.4,00.0,38.9,31.1,10.6,0000.0,0009.08,0002.42,0001.75
2021-09-22 18:48:00,,0833.6,5.00,0.00,29.7,26.0,00.0,38.9,31.0,10.5,0000.0,0009.81,0002.43,0001.75
2021-09-22 18:49:00,,0833.6,4.99,0.00,29.6,26.4,00.0,38.9,31.1,10.8,0000.0,0009.76,0002.38,0001.74
2021-09-22 18:50:00,,0833.6,4.99,0.00,29.6,26.9,00.0,38.8,31.1,10.8,0000.0,0009.73,0002.34,0001.72
2021-09-22 18:51:00,,0833.7,4.99,0.00,29.6,27.3,00.0,38.8,31.2,11.0,0000.0,0009.85,0002.38,0001.73
2021-09-22 18:52:00,,0833.6,5.01,0.00,29.6,27.7,00.0,38.8,31.3,10.6,0000.0,0009.39,0002.39,0001.73
2021-09-22 18:53:00,,0833.6,5.00,0.00,29.6,28.0,00.0,38.8,31.3,10.5,0000.0,0009.09,0002.40,0001.72
2021-09-22 18:54:00,,0833.6,5.00,0.00,29.6,28.2,00.0,38.8,31.4,10.8,0000.0,0009.13,0002.42,0001.73
2021-09-22 18:55:00,,0833.6,5.00,0.00,29.7,28.4,00.0,38.8,31.4,10.8,0000.0,0009.44,0002.51,0001.73
2021-09-22 18:56:00,,0833.6,5.01,0.00,29.7,28.6,00.0,38.8,31.5,10.9,0000.0,0008.88,0002.53,0001.73
2021-09-22 18:57:00,,0833.6,5.00,0.00,29.7,28.7,00.0,38.8,31.6,10.6,0000.0,0008.02,0002.52,0001.74
2021-09-22 18:58:00,,0833.6,5.00,0.00,29.8,28.8,00.0,38.8,31.6,10.7,0000.0,0007.77,0002.50,0001.74
2021-09-22 18:59:00,,0833.6,5.01,0.00,29.8,28.9,00.0,38.8,31.7,10.5,0000.0,0007.03,0002.53,0001.74
